• In Portugal
  • List of Countries
  • For 7 days
  • Water Temperature
  • Satellite Maps
  • Weather Map
  • Weather Widgets
  • user-avatar
    Login

    Hourly Weather Rawson

    Today, 18 February, Sunday

    Time Temperature Precipitation Wind Pressure Humidity
    00:00 +33°C° 0 mm 6 mps 749 mmHg 31%
    01:00 +32°C° 0 mm 6 mps 749 mmHg 30%
    02:00 +32°C° 0 mm 7 mps 749 mmHg 30%
    03:00 +30°C° 0.1 mm 6 mps 749 mmHg 31%
    04:00 +29°C° 0.1 mm 6 mps 749 mmHg 32%
    05:00 +28°C° 0.1 mm 5 mps 749 mmHg 34%
    06:00 +28°C° 0 mm 6 mps 750 mmHg 33%
    07:00 +28°C° 0 mm 6 mps 750 mmHg 33%
    08:00 +27°C° 0 mm 6 mps 750 mmHg 32%
    09:00 +28°C° 0 mm 6 mps 750 mmHg 29%
    10:00 +29°C° 0 mm 6 mps 750 mmHg 26%
    11:00 +30°C° 0 mm 6 mps 750 mmHg 23%
    12:00 +32°C° 0 mm 6 mps 750 mmHg 21%
    13:00 +32°C° 0 mm 5 mps 750 mmHg 20%
    14:00 +33°C° 0 mm 5 mps 749 mmHg 18%
    15:00 +33°C° 0 mm 5 mps 749 mmHg 18%
    16:00 +33°C° 0 mm 5 mps 748 mmHg 17%
    17:00 +33°C° 0 mm 6 mps 748 mmHg 17%
    18:00 +32°C° 0 mm 6 mps 748 mmHg 18%
    19:00 +32°C° 0 mm 6 mps 749 mmHg 19%
    20:00 +30°C° 0 mm 6 mps 749 mmHg 21%
    21:00 +29°C° 0 mm 7 mps 749 mmHg 22%
    22:00 +28°C° 0 mm 7 mps 750 mmHg 24%
    23:00 +27°C° 0 mm 7 mps 750 mmHg 26%

    Tomorrow, 19 February, Monday

    Time Temperature Precipitation Wind Pressure Humidity
    00:00 +24°C° 0 mm 8 mps 751 mmHg 26%
    01:00 +23°C° 0 mm 9 mps 751 mmHg 26%
    02:00 +22°C° 0 mm 9 mps 751 mmHg 26%
    03:00 +21°C° 0 mm 9 mps 752 mmHg 27%
    04:00 +18°C° 0 mm 9 mps 752 mmHg 29%
    05:00 +17°C° 0 mm 9 mps 753 mmHg 30%
    06:00 +17°C° 0 mm 9 mps 753 mmHg 31%
    07:00 +17°C° 0 mm 9 mps 754 mmHg 31%
    08:00 +17°C° 0 mm 9 mps 754 mmHg 31%
    09:00 +18°C° 0 mm 8 mps 754 mmHg 28%
    10:00 +21°C° 0 mm 8 mps 754 mmHg 25%
    11:00 +22°C° 0 mm 7 mps 754 mmHg 23%
    12:00 +23°C° 0 mm 7 mps 754 mmHg 21%
    13:00 +24°C° 0 mm 6 mps 754 mmHg 19%
    14:00 +24°C° 0 mm 6 mps 754 mmHg 17%
    15:00 +26°C° 0 mm 6 mps 754 mmHg 17%
    16:00 +26°C° 0 mm 6 mps 754 mmHg 17%
    17:00 +26°C° 0 mm 6 mps 754 mmHg 17%
    18:00 +23°C° 0 mm 6 mps 754 mmHg 28%
    19:00 +21°C° 0 mm 6 mps 755 mmHg 39%
    20:00 +19°C° 0 mm 6 mps 755 mmHg 50%
    21:00 +19°C° 0 mm 6 mps 755 mmHg 50%
    22:00 +19°C° 0 mm 5 mps 756 mmHg 51%
    23:00 +17°C° 0 mm 5 mps 756 mmHg 52%

    Day after tomorrow, 20 February, Tuesday

    Time Temperature Precipitation Wind Pressure Humidity
    00:00 +17°C° 0 mm 5 mps 756 mmHg 53%
    01:00 +18°C° 0 mm 4 mps 756 mmHg 54%
    02:00 +18°C° 0 mm 4 mps 756 mmHg 54%
    03:00 +18°C° 0 mm 4 mps 756 mmHg 56%
    04:00 +18°C° 0 mm 4 mps 756 mmHg 58%
    05:00 +18°C° 0 mm 4 mps 756 mmHg 60%
    06:00 +19°C° 0 mm 3 mps 757 mmHg 56%
    07:00 +20°C° 0 mm 3 mps 757 mmHg 51%
    08:00 +21°C° 0 mm 3 mps 758 mmHg 46%
    09:00 +22°C° 0 mm 3 mps 758 mmHg 39%
    10:00 +24°C° 0 mm 3 mps 758 mmHg 32%
    11:00 +26°C° 0 mm 2 mps 758 mmHg 24%
    12:00 +26°C° 0 mm 3 mps 758 mmHg 23%
    13:00 +27°C° 0 mm 3 mps 758 mmHg 22%
    14:00 +27°C° 0 mm 4 mps 758 mmHg 21%
    15:00 +28°C° 0 mm 4 mps 758 mmHg 21%
    16:00 +28°C° 0 mm 5 mps 758 mmHg 21%
    17:00 +28°C° 0 mm 5 mps 758 mmHg 21%
    18:00 +27°C° 0 mm 5 mps 758 mmHg 23%
    19:00 +26°C° 0 mm 6 mps 758 mmHg 25%
    20:00 +26°C° 0 mm 7 mps 758 mmHg 27%
    21:00 +24°C° 0 mm 7 mps 758 mmHg 35%
    22:00 +23°C° 0 mm 8 mps 759 mmHg 42%
    23:00 +22°C° 0 mm 9 mps 759 mmHg 49%

    21 February, Wednesday

    Time Temperature Precipitation Wind Pressure Humidity
    00:00 +21°C° 0 mm 9 mps 759 mmHg 52%
    01:00 +21°C° 0 mm 9 mps 759 mmHg 55%
    02:00 +21°C° 0 mm 8 mps 759 mmHg 57%
    03:00 +20°C° 0 mm 8 mps 758 mmHg 60%
    04:00 +20°C° 0 mm 8 mps 758 mmHg 62%
    05:00 +20°C° 0 mm 8 mps 758 mmHg 64%
    06:00 +20°C° 0 mm 8 mps 758 mmHg 62%
    07:00 +21°C° 0 mm 9 mps 758 mmHg 60%
    08:00 +22°C° 0 mm 10 mps 757 mmHg 59%
    09:00 +24°C° 0 mm 10 mps 757 mmHg 48%
    10:00 +27°C° 0 mm 10 mps 756 mmHg 37%
    11:00 +29°C° 0 mm 10 mps 756 mmHg 27%
    12:00 +32°C° 0 mm 10 mps 755 mmHg 21%
    13:00 +33°C° 0 mm 10 mps 754 mmHg 15%
    14:00 +34°C° 0 mm 10 mps 754 mmHg 10%
    15:00 +35°C° 0 mm 9 mps 753 mmHg 9%
    16:00 +35°C° 0 mm 8 mps 753 mmHg 9%
    17:00 +35°C° 0 mm 7 mps 753 mmHg 9%
    18:00 +33°C° 0 mm 7 mps 753 mmHg 14%
    19:00 +30°C° 0 mm 7 mps 753 mmHg 19%
    20:00 +28°C° 0 mm 7 mps 754 mmHg 24%
    21:00 +27°C° 0 mm 6 mps 754 mmHg 26%
    22:00 +27°C° 0 mm 5 mps 754 mmHg 28%
    23:00 +26°C° 0 mm 4 mps 755 mmHg 30%

    22 February, Thursday

    Time Temperature Precipitation Wind Pressure Humidity
    00:00 +26°C° 0 mm 4 mps 755 mmHg 31%
    01:00 +26°C° 0 mm 4 mps 755 mmHg 32%
    02:00 +26°C° 0 mm 4 mps 756 mmHg 32%
    03:00 +25°C° 0 mm 5 mps 756 mmHg 34%
    04:00 +23°C° 0 mm 6 mps 757 mmHg 35%
    05:00 +22°C° 0 mm 7 mps 757 mmHg 37%
    06:00 +21°C° 0 mm 8 mps 758 mmHg 40%
    07:00 +19°C° 0 mm 9 mps 758 mmHg 43%
    08:00 +19°C° 0 mm 10 mps 759 mmHg 46%
    09:00 +19°C° 0 mm 9 mps 760 mmHg 49%
    10:00 +19°C° 0 mm 9 mps 760 mmHg 51%
    11:00 +19°C° 0 mm 9 mps 761 mmHg 54%
    12:00 +20°C° 0 mm 8 mps 761 mmHg 51%
    13:00 +20°C° 0 mm 8 mps 761 mmHg 49%
    14:00 +21°C° 0 mm 7 mps 761 mmHg 47%
    15:00 +20°C° 0 mm 7 mps 761 mmHg 48%
    16:00 +20°C° 0 mm 7 mps 761 mmHg 48%
    17:00 +18°C° 0 mm 7 mps 761 mmHg 48%
    18:00 +17°C° 0 mm 6 mps 762 mmHg 52%
    19:00 +16°C° 0 mm 6 mps 762 mmHg 55%
    20:00 +15°C° 0 mm 6 mps 763 mmHg 59%
    21:00 +15°C° 0 mm 5 mps 763 mmHg 61%
    22:00 +15°C° 0 mm 4 mps 763 mmHg 64%
    23:00 +14°C° 0 mm 4 mps 764 mmHg 66%

    23 February, Friday

    Time Temperature Precipitation Wind Pressure Humidity
    00:00 +14°C° 0 mm 3 mps 763 mmHg 68%
    01:00 +14°C° 0 mm 3 mps 763 mmHg 70%
    02:00 +15°C° 0 mm 2 mps 763 mmHg 72%
    03:00 +15°C° 0 mm 2 mps 763 mmHg 73%
    04:00 +14°C° 0 mm 2 mps 763 mmHg 74%
    05:00 +14°C° 0 mm 2 mps 763 mmHg 75%
    06:00 +15°C° 0 mm 2 mps 763 mmHg 70%
    07:00 +16°C° 0 mm 3 mps 763 mmHg 65%
    08:00 +17°C° 0 mm 3 mps 764 mmHg 59%
    09:00 +19°C° 0 mm 3 mps 764 mmHg 50%
    10:00 +21°C° 0 mm 3 mps 763 mmHg 41%
    11:00 +24°C° 0 mm 3 mps 763 mmHg 32%
    12:00 +25°C° 0 mm 4 mps 763 mmHg 29%
    13:00 +27°C° 0 mm 4 mps 763 mmHg 25%
    14:00 +28°C° 0 mm 5 mps 762 mmHg 22%
    15:00 +28°C° 0 mm 6 mps 762 mmHg 22%
    16:00 +28°C° 0 mm 6 mps 762 mmHg 21%
    17:00 +28°C° 0 mm 7 mps 762 mmHg 21%
    18:00 +27°C° 0 mm 7 mps 762 mmHg 25%
    19:00 +24°C° 0 mm 8 mps 762 mmHg 28%
    20:00 +23°C° 0 mm 9 mps 762 mmHg 32%
    21:00 +22°C° 0 mm 9 mps 762 mmHg 38%
    22:00 +21°C° 0 mm 9 mps 762 mmHg 44%
    23:00 +19°C° 0 mm 10 mps 762 mmHg 49%
    Show more